sat.trackr.live / text

‹ back to catalog

STARLINK-4217

NORAD 52999 · 2022-076P

PAYLOAD ACTIVE UNKNOWN

§ Identity

Operator
Country
US
Launch date
2022-07-07
Launch site
AFETR
Launch vehicle
Mass (kg)
RCS (m²)

Purposes: comms

External: N2YO · Heavens-Above · Gunter

§ Orbital elements

Epoch: 2026-09-20T02:02:06.359712Z

Period
93.85 min
Inclination
53.1578°
Eccentricity
0.0001347
Mean motion
15.34391559 rev/d
Perigee alt
461.8 km
Apogee alt
463.6 km
Semi-major
6,840.9 km
B*
2.1760e-5
RAAN
285.3111°
Arg perigee
86.6519°
Mean anomaly
273.4637°
Rev number
23,241

§ Raw data

STARLINK-42171 52999U 22076P   26263.08479583  .00000359  00000+0  21760-4 0  99902 52999  53.1578 285.3111 0001347  86.6519 273.4637 15.34391559232415

JSON: /api/v1/satellites/52999 · /tle

For live sub-satellite position, see the globe view (requires WebGL).

§ Visibility from observer

Set your observer location to see the next 7 days of passes ≥ 10°. The values pass through the URL so the page stays shareable.

No JS? Fill the form by hand. The geolocation button needs JavaScript.